Humidity-temperature Sensor

Selected Measurement Type: Relative Humidity

 
Relative Humidity [%]     6 entries per hour
Showing data from 9/11/2017 (00:00:00 Z) to 9/10/2017 (00:01:00 Z)
Previous Next [ Day | 3-Days | 7-Days ]
First Last
Prev [ Day | 3-Days | 7-Days ] Next
First Last

Start Time:     :
End Time:     :     
Time (in GMT) :00 :50 :40 :30 :20 :10
Previous Next [ Day | 3-Days | 7-Days ]
First Last
Prev [ Day | 3-Days | 7-Days ] Next
First Last


123 => good data
MM => data is determined as missing
-- => data not received/configured
Back to Top Back to Top
9/11/2017 00:00 to 23:10 74.74 75.52 77.04 77.12 75.69 77.80
9/10/2017 23:00 to 22:10 79.69 80.16 80.24 78.13 72.70 72.89
9/10/2017 22:00 to 21:10 72.22 72.89 73.46 72.49 72.43 70.43
9/10/2017 21:00 to 20:10 71.06 70.93 69.25 70.97 70.93 72.01
9/10/2017 20:00 to 19:10 73.63 74.60 76.51 76.74 76.07 75.48
9/10/2017 19:00 to 18:10 79.73 78.91 81.31 81.06 81.84 81.67
9/10/2017 18:00 to 17:10 80.58 80.94 81.88 82.24 85.11 86.69
9/10/2017 17:00 to 16:10 86.22 86.10 85.86 83.53 87.51 86.77
9/10/2017 16:00 to 15:10 85.48 84.01 82.60 79.15 79.61 78.79
9/10/2017 15:00 to 14:10 78.37 77.04 74.68 81.08 82.98 82.05
9/10/2017 14:00 to 13:10 80.89 80.20 79.02 80.13 82.75 85.21
9/10/2017 13:00 to 12:10 85.53 85.15 85.82 84.41 85.65 85.42
9/10/2017 12:00 to 11:10 85.93 87.19 88.29 89.80 91.07 90.83
9/10/2017 11:00 to 10:10 90.33 88.71 88.75 89.51 88.43 86.18
9/10/2017 10:00 to 9:10 87.53 81.04 82.77 84.35 84.49 85.06
9/10/2017 09:00 to 8:10 85.57 87.00 85.70 85.11 83.15 78.64
9/10/2017 08:00 to 7:10 78.30 77.90 77.82 77.42 75.44 75.00
9/10/2017 07:00 to 6:10 76.11 74.76 79.65 78.77 82.85 80.62
9/10/2017 06:00 to 5:10 84.05 82.77 83.50 83.21 81.46 82.92
9/10/2017 05:00 to 4:10 84.43 84.98 84.07 83.82 82.87 83.72
9/10/2017 04:00 to 3:10 85.51 86.31 89.23 90.75 91.97 90.60
9/10/2017 03:00 to 2:10 -- -- -- -- -- --
9/10/2017 02:00 to 1:10 87.15 86.37 85.95 85.36 86.03 86.73
9/10/2017 01:00 to 0:10 87.13 87.19 88.05 88.96 88.41 89.00